TimeEDT,TemperatureF,Dew PointF,Humidity,Sea Level PressureIn,VisibilityMPH,Wind Direction,Wind SpeedMPH,Gust SpeedMPH,PrecipitationIn,Events,Conditions,WindDirDegrees,DateUTC
12:19 AM,72.0,69.1,91,29.92,10.0,NNE,4.6,-,N/A,,Overcast,20,2013-10-08 04:19:00
12:37 AM,72.0,69.1,91,29.92,10.0,NNE,3.5,-,0.00,Rain,Light Rain,30,2013-10-08 04:37:00
12:47 AM,72.0,70.0,93,29.92,4.0,NNE,3.5,-,0.04,Rain,Rain,30,2013-10-08 04:47:00
12:59 AM,72.0,70.0,93,29.93,1.8,East,6.9,-,0.04,Rain,Heavy Rain,90,2013-10-08 04:59:00
1:23 AM,72.0,71.1,97,29.92,3.0,NE,10.4,-,0.23,Rain,Heavy Rain,50,2013-10-08 05:23:00
1:31 AM,72.0,70.0,93,29.92,2.0,ENE,13.8,-,0.30,Rain,Heavy Rain,70,2013-10-08 05:31:00
1:37 AM,72.0,70.0,93,29.92,3.0,ENE,11.5,-,0.32,Rain,Rain,70,2013-10-08 05:37:00
1:56 AM,71.1,70.0,96,29.93,10.0,East,9.2,-,0.33,Rain,Light Rain,90,2013-10-08 05:56:00
2:13 AM,71.1,70.0,96,29.92,7.0,ENE,6.9,-,0.01,Rain,Light Rain,60,2013-10-08 06:13:00
2:43 AM,71.1,69.1,93,29.93,7.0,ENE,9.2,-,0.09,Rain,Rain,60,2013-10-08 06:43:00
2:56 AM,71.1,70.0,96,29.94,3.0,NNE,6.9,-,0.16,Rain,Heavy Rain,20,2013-10-08 06:56:00
3:08 AM,70.0,69.1,97,29.92,5.0,NNE,9.2,-,0.02,Rain,Light Rain,20,2013-10-08 07:08:00
3:16 AM,70.0,69.1,97,29.92,5.0,NNE,9.2,-,0.04,Rain,Rain,30,2013-10-08 07:16:00
3:23 AM,70.0,69.1,97,29.92,6.0,NNE,9.2,-,0.04,Rain,Light Rain,30,2013-10-08 07:23:00
3:56 AM,70.0,69.1,97,29.94,8.0,North,9.2,-,0.06,Rain,Light Rain,10,2013-10-08 07:56:00
4:21 AM,70.0,68.0,93,29.92,5.0,NNE,16.1,-,0.03,Rain,Light Rain,30,2013-10-08 08:21:00
4:46 AM,69.1,66.9,93,29.93,10.0,NE,13.8,-,0.05,Rain,Light Rain,40,2013-10-08 08:46:00
4:50 AM,69.8,66.2,88,29.93,10.0,NE,13.8,-,0.06,Rain,Light Rain,40,2013-10-08 08:50:00
4:56 AM,69.1,68.0,96,29.94,10.0,NE,13.8,-,0.06,Rain,Light Rain,40,2013-10-08 08:56:00
5:52 AM,66.2,64.4,94,29.97,10.0,NNE,13.8,28.8,0.00,Rain,Light Rain,30,2013-10-08 09:52:00
5:56 AM,66.0,64.0,93,29.99,10.0,NNE,13.8,26.5,0.00,Rain,Light Rain,20,2013-10-08 09:56:00
6:56 AM,64.9,62.1,90,30.02,10.0,NNE,19.6,29.9,0.00,Rain,Light Rain,30,2013-10-08 10:56:00
7:14 AM,64.0,62.1,93,30.02,8.0,NNE,18.4,21.9,0.02,Rain,Light Rain,20,2013-10-08 11:14:00
7:56 AM,62.1,59.0,90,30.03,8.0,NNE,18.4,26.5,0.10,Rain,Light Rain,20,2013-10-08 11:56:00
8:11 AM,61.0,59.0,93,30.03,10.0,NNE,18.4,26.5,0.00,Rain,Light Rain,20,2013-10-08 12:11:00
8:56 AM,61.0,59.0,93,30.05,10.0,NNE,19.6,28.8,0.02,Rain,Light Rain,20,2013-10-08 12:56:00
9:56 AM,61.0,57.9,90,30.07,10.0,NNE,17.3,24.2,0.01,Rain,Light Rain,20,2013-10-08 13:56:00
11:56 AM,62.1,59.0,90,30.09,10.0,NNE,16.1,-,0.00,Rain,Light Rain,20,2013-10-08 15:56:00
12:56 PM,61.0,57.9,90,30.09,7.0,North,15.0,21.9,0.01,Rain,Light Rain,10,2013-10-08 16:56:00
1:56 PM,60.1,59.0,96,30.07,7.0,North,15.0,21.9,0.03,Rain,Light Rain,10,2013-10-08 17:56:00
2:22 PM,60.1,57.9,93,30.06,7.0,North,15.0,21.9,0.01,Rain,Light Rain,10,2013-10-08 18:22:00
2:56 PM,60.1,57.9,93,30.06,8.0,North,12.7,23.0,0.03,Rain,Light Rain,10,2013-10-08 18:56:00
3:56 PM,60.1,59.0,96,30.07,7.0,North,13.8,-,0.03,Rain,Light Rain,360,2013-10-08 19:56:00
4:56 PM,60.1,59.0,96,30.07,5.0,North,15.0,-,0.06,Rain,Light Rain,10,2013-10-08 20:56:00
5:56 PM,61.0,59.0,93,30.07,5.0,North,15.0,-,0.09,Rain,Light Rain,10,2013-10-08 21:56:00
6:13 PM,61.0,59.0,93,30.07,5.0,North,15.0,-,0.01,Rain,Light Rain,10,2013-10-08 22:13:00
6:41 PM,60.1,59.0,96,30.07,7.0,North,15.0,-,0.03,Rain,Light Rain,10,2013-10-08 22:41:00
6:56 PM,60.1,59.0,96,30.08,10.0,North,15.0,-,0.04,Rain,Light Rain,10,2013-10-08 22:56:00
7:56 PM,60.1,57.9,93,30.08,6.0,North,13.8,-,0.05,Rain,Light Rain,10,2013-10-08 23:56:00
8:56 PM,59.0,57.9,96,30.10,7.0,North,12.7,-,0.09,Rain,Light Rain,360,2013-10-09 00:56:00
9:25 PM,59.0,57.0,93,30.09,10.0,North,16.1,-,0.02,Rain,Light Rain,360,2013-10-09 01:25:00
9:56 PM,59.0,57.0,93,30.10,8.0,North,12.7,-,0.04,Rain,Light Rain,350,2013-10-09 01:56:00
10:15 PM,59.0,57.0,93,30.09,10.0,North,12.7,-,0.00,,Overcast,350,2013-10-09 02:15:00
10:56 PM,59.0,57.0,93,30.10,10.0,North,12.7,-,0.00,Rain,Light Rain,350,2013-10-09 02:56:00
11:56 PM,59.0,57.0,93,30.08,10.0,North,12.7,24.2,0.00,,Overcast,360,2013-10-09 03:56:00